www.pogodaiklimat.ru

Погода и климат >> Архив погоды >> Аргентина >> Santiago del Estero


ПОГОДА в Santiago del Estero

  • Прогноз погоды в Santiago del Estero
  • Монитор погоды в Santiago del Estero
  • Климат города

АРХИВ ПОГОДЫ в Santiago del Estero

Время (UTC), дата Ветер
(напр.,м/с)
 
Видим.   Явления Облачность Т
(С)
Тd
(С)
f
(%)
Тe
(С)
Тes
(С)
Комфортность P
(гПа)
Po
(гПа)
Тmin
(С)
Tmax
(С)
R
(мм)
R24
(мм)
S
(см)
06 14.04 В 2 10 км 10/10 600 м
[St]
+15.2 +11.1 77 +15 +15 1023.3 999.7
09 14.04 ЮВ 2 6000 м слабая морось 10/10 360 м
[St]
+13.6 +12.5 93 +13 +13 1023.2 999.4
12 14.04 Ю 2 2000 м слабая морось туман 10/10 90 м
[St]
+13.4 +12.7 96 +13 +13 1025.3 1001.4 +13.0 +17.0 0.2
15 14.04 ЮЗ 1 10 км {морось} 10/10 150 м
[Sc]
+14.9 +12.9 88 +15 +15 1025.8 1002.0
18 14.04 Ю 3 10 км {морось} 9/5 450 м
[Sc Ac und]
+17.8 +13.1 74 +18 +20 1023.0 999.4 0.0
21 14.04 ЮВ 3 10 км 8/5 450 м
[Sc Ac und]
+18.1 +13.6 75 +19 +19 1022.5 998.9
00 15.04 В 1 10 км 10/10 450 м
[Sc]
+16.5 +13.7 84 +17 +17 1023.9 1000.1 +13.4 +18.9
03 15.04 В 1 10 км 4/0
[Ac As]
+14.8 +13.7 93 +15 +15 1025.2 1001.4
06 15.04 штиль 0 10 км 8/0
[Ac As]
+14.3 +12.9 91 +14 +14 1024.3 1000.6
09 15.04 штиль 0 10 км 4/0
[Ac As]
+14.2 +12.9 92 +14 +14 1024.2 1000.5
12 15.04 штиль 0 7000 м дымка 10/4 1050 м
[Sc Ac As]
+15.6 +14.6 94 +15 +16 1025.3 1001.6 +13.7 +16.5 0.0
15 15.04 С 1 12 км 10/5 1000 м
[Cu hum Ac As]
+20.4 +14.7 70 +24 +26 комфорт 1025.6 1002.0
18 15.04 С 3 12 км 9/5 1050 м
[Sc Ac As]
+23.0 +15.8 64 +27 +29 душно 1022.9 999.4
21 15.04 СВ 2 12 км 6/3 1050 м
[Sc Ac As]
+23.6 +16.5 64 +27 +27 жарко 1021.0 997.6
00 16.04 СВ 2 10 км 1/0
[Ac As]
+21.2 +17.0 77 +25 +25 комфорт 1021.3 997.8 +15.6 +25.2
03 16.04 штиль 0 10 км ясно +17.5 +16.3 93 +17 +17 1021.8 998.2
06 16.04 штиль 0 5000 м дымка ясно +14.5 +13.3 93 +14 +14 1021.3 997.4
09 16.04 штиль 0 300 м туман ясно +12.6 +12.0 96 +12 +12 1020.1 996.2
12 16.04 штиль 0 8000 м в посл. час туман 8/0
[Ac As]
+14.8 +14.3 97 +14 +16 1020.4 996.9 +12.6 +21.2
15 16.04 С 3 10 км 8/8 750 м
[Cu hum]
+26.2 +18.1 61 +31 +33 очень
душно
1019.2 996.1
18 16.04 С 6 12 км 8/8 900 м
[Cu hum]
+29.5 +17.0 47 +33 +34 душно 1015.4 992.4
21 16.04 СВ 4 10 км 4/4 900 м
[Cu hum]
+29.0 +16.3 46 +32 +33 душно 1013.4 990.2
00 17.04 СВ 2 10 км 5/5 750 м
[Sc]
+24.6 +17.7 65 +29 +29 душно 1014.5 991.3 +14.8 +30.0
03 17.04 СВ 3 10 км 3/0
[Ac As]
+22.2 +17.9 77 +27 +27 душно 1014.3 991.4
06 17.04 СВ 1 10 км 3/0
[Ac As]
+19.7 +17.6 88 +23 +23 комфорт 1013.8 991.0
09 17.04 СВ 2 10 км 5/5 600 м
[Sc]
+20.1 +17.9 87 +24 +24 комфорт 1013.2 990.4
12 17.04 С 5 10 км 4/4 750 м
[Sc]
+22.0 +18.4 80 +27 +27 душно 1014.3 991.4 +19.6 +24.6
15 17.04 С 6 10 км 6/6 900 м
[Cu hum]
+28.7 +18.9 55 +34 +36 очень
душно
1014.4 991.7
18 17.04 С 7 10 км 6/6 750 м
[Cu hum]
+31.8 +17.6 43 +36 +36 очень
душно
1012.5 989.8
21 17.04 СВ 4 12 км 1/1 1050 м
[Cu hum]
+31.2 +16.8 42 +35 +35 очень
душно
1011.5 988.8
00 18.04 СВ 3 10 км ясно +26.0 +17.9 61 +30 +30 душно 1012.8 990.0 +22.0 +33.0
03 18.04 СВ 2 10 км 1/0
[Ac As]
+24.8 +17.5 64 +29 +29 душно 1013.7 991.0
06 18.04 СВ 1 10 км 3/0
[Ac As]
+21.8 +18.2 80 +27 +27 душно 1013.9 991.3
09 18.04 СЗ 1 10 км ясно +22.2 +18.1 78 +27 +27 душно 1014.1 991.4
12 18.04 СВ 2 10 км 3/0
[Ac As]
+21.8 +18.0 79 +26 +28 душно 1016.2 993.0 +19.0 +26.0
15 18.04 С 3 10 км 3/3 1200 м
[Cu hum]
+29.6 +17.8 49 +34 +41 очень
душно
1014.8 992.2
18 18.04 СВ 3 10 км 6/6 900 м
[Cu hum]
+31.2 +16.8 42 +35 +38 очень
душно
1011.3 989.0
21 18.04 СВ 5 10 км 3/3 900 м
[Sc]
+31.8 +15.6 38 +34 +35 душно 1009.6 987.0
00 19.04 СВ 3 10 км 4/1 1200 м
[Sc Ac As]
+26.6 +16.4 54 +30 +30 душно 1010.6 987.8 +21.5 +33.0
03 19.04 СВ 2 10 км 3/0
[Ac As]
+25.1 +16.6 59 +29 +29 душно 1011.6 989.0
06 19.04 СВ 2 10 км ясно +23.1 +15.4 62 +27 +27 душно 1010.7 988.2
09 19.04 штиль 0 10 км ясно +20.5 +14.6 69 +23 +23 комфорт 1010.3 987.7
12 19.04 СВ 2 10 км ясно +21.7 +16.5 72 +26 +27 душно 1011.5 988.6 +19.5 +26.6
15 19.04 С 5 10 км 1/1 900 м
[Cu hum]
+30.4 +18.7 50 +36 +41 очень
душно
1010.4 987.8
18 19.04 СВ 5 10 км 4/4 900 м
[Cu hum]
+33.2 +17.7 40 +37 +40 очень
душно
1007.9 985.4
21 19.04 С 5 12 км 3/1 1050 м
[Sc Ac As]
+32.4 +16.8 39 +36 +36 очень
душно
1007.1 984.6
00 20.04 СВ 1 12 км 3/0
[Ac As]
+26.2 +19.8 68 +32 +32 очень
душно
1008.7 986.0 +21.7 +33.5
03 20.04 СВ 2 10 км 6/6 600 м
[Sc]
+26.9 +18.0 58 +31 +31 душно 1009.6 987.2
06 20.04 СВ 2 10 км 6/4 750 м
[Sc Ac As]
+25.2 +18.0 64 +30 +30 душно 1009.2 986.8
09 20.04 СВ 1 10 км 3/0
[Ac und]
+22.5 +17.2 72 +27 +27 душно 1009.2 986.6
12 20.04 С 2 10 км ясно +23.4 +18.6 74 +30 +31 очень
душно
1010.5 987.8 +21.0 +27.4
15 20.04 СВ 2 10 км ясно +32.0 +19.6 48 +38 +50 очень
душно
1009.4 987.0
18 20.04 СВ 5 10 км ясно +34.0 +16.8 36 +37 +42 очень
душно
1007.1 984.8
21 20.04 СВ 2 12 км 1/0
[Ac As]
+34.2 +14.8 31 +36 +36 душно 1006.2 983.8
00 21.04 СВ 2 10 км ясно +28.0 +17.3 52 +32 +32 душно 1008.5 985.8 +23.4 +35.0
03 21.04 штиль 0 10 км 3/0
[Ac cast]
+24.0 +18.0 69 +28 +28 душно 1009.9 987.4

 

Местоположение метеостанции Santiago del Estero (Аргентина): широта -27.76 долгота -64.30 высота над уровнем моря 199 м.

В архиве по умолчанию представлена погода в Santiago del Estero за последнюю неделю. Архивные данные за месяц целиком и за предыдущие месяцы, начиная с января 2011 года, Вы можете получить, выбрав интересующий диапазон дат из раскрывающегося списка и нажав кнопку "Ввод!".


*Определитесь, кто Вы:
робот инопланетянин человек

Внимание! Время в таблицах - всемирное. Для получения местного времени необходимо прибавить поправку, которая в Santiago del Estero равна -3 ч.

Смотрите также архив погоды в соседних городах и на ближайших метеорологических станциях:

Погода в San Miguel de Tucuman (Аргентина) (128 км)
Погода в San Fernando del Valle de Catamarca (Аргентина) (171 км)
Погода в Villa de Maria del Rio Seco (Аргентина) (246 км)
Погода в La Rioja (Аргентина) (304 км)
Погода в Ceres (Аргентина) (329 км)
Погода в Salta (Аргентина) (344 км)
Погода в Chamical (Аргентина) (347 км)
Погода в San Salvador de Jujuy (Аргентина) (384 км)
Погода в Presidencia Roque Saenz Pena (Аргентина) (395 км)
Погода в Cordoba (Аргентина) (395 км)

Пояснения к столбцам:

Ветер - указаны скорость ветра в м/с - средняя за 10 мин, порывы в срок и между сроками (в фигурных скобках) и направление, откуда дует ветер: С - северный, СВ - северо-восточный, В - восточный, ЮВ - юго-восточный, Ю - южный, ЮЗ - юго-западный, З - западный, СЗ - северо-западный.
Видимость - горизонтальная дальность видимости в метрах или километрах. При видимости от 1 до 10 км при отсутствии осадков обычно наблюдается дымка, при ухудшении видимости до 1 км и менее - туман. В сухую погоду видимость может ухудшаться дымом, пылью или мглою.
Явления - указаны атмосферные явления, наблюдавшиеся в срок или в последний час перед сроком; фигурными скобками обозначены явления, наблюдавшиеся между сроками (за 1-3 часа до срока); квадратными скобками обозначены град или гололедные отложения с указанием их диаметра в мм.
Облачность - указаны через наклонную черту общая и нижняя облачность в баллах и высота нижней границы облаков в метрах; квадратными скобками обозначены формы облаков: Ci - перистые, Cs - перисто-слоистые, Cc - перисто-кучевые, Ac - высококучевые, As - высокослоистые, Sc - слоисто-кучевые, Ns - слоисто-дождевые, Cu - кучевые, Cb - кучево-дождевые. Подробнее классификацию облаков см. в Атласе облаков (PDF).
T - Температура воздуха - температура, измеренная на высоте 2 м над землей.
Td - Температура точки росы - температура, при понижении до которой содержащийся в воздухе водяной пар достигнет насыщения.
f - Относительная влажность воздуха - влажноcть воздуха, измеренная на высоте 2 м над землей.
Te - Эффективная температура - температура, которую ощущает одетый по сезону человек в тени. Характеристика душности погоды. При расчете учитывается влияние влажности воздуха и скорости ветра на теплоощущения человека.
Tes - Эффективная температура на солнце - температура, которую ощущает человек, с поправкой на солнечный нагрев. Характеристика знойности погоды. Зависит от высоты солнца над горизонтом, облачности и скорости ветра. Ночью, в пасмурную погоду, а также при ветре 12 м/с и более поправка равна нулю.
P - Атмосферное давление - приведенное к уровню моря атмосферное давление.
Po - Атмосферное давление - измеренное на уровне метеостанции атмосферное давление.
Tmin - Минимальная температура - минимум температуры воздуха на высоте 2 м над землей.
Tmax - Максимальная температура - максимум температуры воздуха на высоте 2 м над землей.
R - Количество осадков - Количество выпавших осадков за период времени, мм. При наведении курсора мыши на число - период времени, за который выпало указанное количество осадков.
R24 - Количество осадков - Количество выпавших осадков за 24 часа, мм.
S - Снежный покров - Высота снежного покрова, см. При наведении курсора мыши на число - состояние снежного покрова и степень покрытия местности в баллах.